Dalhart, TX

2:12 AM CDT on June 23, 2017 (GMT -0500)
Dalhart Municipal

Weather History for KDHT - May, 2013

Change the Weather History Date:

Thursday, May 30, 2013

  Actual Average Record
Temperature  
Mean Temperature 73 °F 68 °F  
Max Temperature 92 °F 83 °F 99 °F (2000)
Min Temperature 53 °F 53 °F 41 °F (1975)
Degree Days  
Heating Degree Days 0 1  
Month to date heating degree days 120 113  
Since 1 July heating degree days 4400 4715  
Cooling Degree Days 8 4  
Month to date cooling degree days 135 61  
Year to date cooling degree days 146 67  
Growing Degree Days 23 (Base 50)    
Moisture  
Dew Point 29 °F    
Average Humidity 34    
Maximum Humidity 61    
Minimum Humidity 6    
Precipitation  
Precipitation 0.00 in 0.09 in 0.68 in (1976)
Month to date precipitation 0.44 2.16  
Year to date precipitation 1.30 5.33  
Snow  
Snow 0.00 in 0.00 in T in (1951)
Month to date snowfall T 0.1  
Since 1 July snowfall 21.6 19.0  
Snow Depth 0.00 in    
Sea Level Pressure  
Sea Level Pressure 29.57 in    
Wind  
Wind Speed 16 mph (West)    
Max Wind Speed 35 mph    
Max Gust Speed 46 mph    
Visibility 10 miles    
Events      
T = Trace of Precipitation, MM = Missing Value Source: NWS Daily Summary

Daily Weather History Graph

Daily Weather History Graph

Search for Another Location

Airport or City:

Trip Planner

Search our weather history database for the weather conditions in past years. The results will help you decide how hot, cold, wet, or windy it might be!

Date:

Astronomy

May. 30, 2013 Rise Set
Actual Time 6:35 AM CDT 9:00 PM CDT
Civil Twilight 6:05 AM CDT 9:30 PM CDT
Nautical Twilight 5:29 AM CDT 10:06 PM CDT
Astronomical Twilight 4:49 AM CDT 10:47 PM CDT
Moon 1:09 AM CDT (5/30) 12:38 PM CDT (5/30)
Length of Visible Light 15h 24m
Length of Day
14h 25m
Waning Gibbous, 62% of the Moon is Illuminated
May 30
Waning Gibbous
May 31
Last Quarter
Jun 8
New
Jun 16
First Quarter
Jun 23
Full

Hourly Weather History & Observations

Time (CDT) Temp. Dew Point Humidity Pressure Visibility Wind Dir Wind Speed Gust Speed Precip Events Conditions
12:00 AM 68.0 °F 39.2 °F 35% 29.64 in 9.0 mi NNW 15.0 mph 24.2 mph N/A   Clear
12:53 AM 66.9 °F 39.9 °F 37% 29.46 in 10.0 mi North 20.7 mph 28.8 mph N/A   Clear
1:53 AM 63.0 °F 41.0 °F 45% 29.49 in 10.0 mi North 18.4 mph 26.5 mph N/A   Clear
2:53 AM 62.1 °F 41.0 °F 46% 29.50 in 10.0 mi North 18.4 mph 24.2 mph N/A   Clear
3:53 AM 59.0 °F 42.1 °F 53% 29.53 in 10.0 mi WNW 6.9 mph - N/A   Clear
4:53 AM 57.0 °F 42.1 °F 57% 29.56 in 10.0 mi WNW 8.1 mph - N/A   Clear
5:53 AM 57.0 °F 43.0 °F 59% 29.58 in 10.0 mi NNW 6.9 mph - N/A   Clear
6:53 AM 55.0 °F 42.1 °F 62% 29.60 in 10.0 mi WNW 9.2 mph - N/A   Clear
7:53 AM 59.0 °F 43.0 °F 55% 29.63 in 10.0 mi WNW 5.8 mph - N/A   Clear
8:53 AM 64.9 °F 43.0 °F 45% 29.66 in 10.0 mi West 9.2 mph - N/A   Clear
9:53 AM 71.1 °F 39.9 °F 32% 29.66 in 10.0 mi WSW 10.4 mph - N/A   Clear
10:53 AM 75.9 °F 35.1 °F 23% 29.64 in 10.0 mi SW 15.0 mph - N/A   Clear
11:53 AM 80.1 °F 28.0 °F 15% 29.62 in 10.0 mi West 15.0 mph 23.0 mph N/A   Clear
12:53 PM 82.9 °F 21.9 °F 11% 29.61 in 10.0 mi West 17.3 mph 31.1 mph N/A   Clear
1:20 PM 84.2 °F 21.2 °F 10% 29.77 in 10.0 mi WNW 25.3 mph 36.8 mph N/A   Clear
1:53 PM 87.1 °F 21.0 °F 9% 29.57 in 10.0 mi WSW 24.2 mph 34.5 mph N/A   Partly Cloudy
2:53 PM 88.0 °F 19.9 °F 8% 29.54 in 10.0 mi SW 20.7 mph 42.6 mph N/A   Clear
3:53 PM 91.0 °F 15.1 °F 6% 29.52 in 10.0 mi SW 28.8 mph 36.8 mph N/A   Clear
4:53 PM 90.0 °F 14.0 °F 6% 29.50 in 10.0 mi West 21.9 mph 32.2 mph N/A   Clear
5:53 PM 91.0 °F 18.0 °F 7% 29.48 in 10.0 mi SSW 24.2 mph 34.5 mph N/A   Clear
6:53 PM 90.0 °F 18.0 °F 7% 29.48 in 10.0 mi SW 24.2 mph 33.4 mph N/A   Clear
7:53 PM 89.1 °F 19.0 °F 8% 29.47 in 10.0 mi SW 21.9 mph 29.9 mph N/A   Clear
8:53 PM 80.1 °F 16.0 °F 9% 29.50 in 10.0 mi West 10.4 mph - N/A   Clear
9:53 PM 77.0 °F 15.1 °F 10% 29.53 in 10.0 mi West 12.7 mph - N/A   Clear
10:53 PM 77.0 °F 15.1 °F 10% 29.57 in 9.0 mi WNW 16.1 mph - N/A   Clear
11:53 PM 72.0 °F 21.9 °F 15% 29.62 in 10.0 mi North 11.5 mph - N/A   Clear